FW8034 Weather Reports


time (UTC)temp
F
wind
direction
speed
knots
gust
knots
rain 1hr
in
rain 24hr
in
rain mn
in
humidity
%
barometer
mb
20260906172305 85 60 4.3 7.0 0.00 0.00 0.00 81 1053.5
20260906171756 84 306 0.9 1.7 0.00 0.00 0.00 83 1053.3
20260906171251 85 96 4.3 6.1 0.00 0.00 0.00 81 1053.4
20260906170747 85 8 0.9 1.7 0.00 0.00 0.00 81 1053.4
20260906170242 85 354 1.7 2.6 0.00 0.00 0.00 82 1053.3
20260906165733 84 105 5.2 7.0 0.00 0.00 0.00 81 1053.5
20260906165232 85 344 0.9 1.7 0.00 0.00 0.00 83 1053.5
20260906164732 85 266 0.9 1.7 0.00 0.00 0.00 81 1053.5
20260906164227 85 80 1.7 4.3 0.00 0.00 0.00 81 1053.4
20260906163723 84 268 0.9 2.6 0.00 0.00 0.00 82 1053.3
20260906163219 84 261 0.9 1.7 0.00 0.00 0.00 84 1053.3
20260906162715 84 251 1.7 1.7 0.00 0.00 0.00 81 1053.1
20260906162210 84 128 1.7 7.8 0.00 0.00 0.00 86 1053.4
20260906161705 85 91 4.3 7.0 0.00 0.00 0.00 82 1053.3
20260906161204 84 87 1.7 2.6 0.00 0.00 0.00 82 1053.4
20260906160703 85 218 1.7 1.7 0.00 0.00 0.00 80 1053.3
20260906160203 84 72 0.9 1.7 0.00 0.00 0.00 82 1053.2
20260906155700 83 157 0.9 1.7 0.00 0.00 0.00 83 1053.5
20260906155156 84 72 1.7 4.3 0.00 0.00 0.00 83 1053.8
20260906154651 82 347 0.9 1.7 0.00 0.00 0.00 84 1053.7
20260906154151 82 32 0.9 2.6 0.00 0.00 0.00 85 1053.5
20260906153649 82 231 0.0 2.6 0.00 0.00 0.00 84 1053.7
20260906153144 82 304 0.0 1.7 0.00 0.00 0.00 84 1053.8
20260906152639 81 3 0.0 1.7 0.00 0.00 0.00 87 1053.7
20260906152139 81 298 0.0 0.9 0.00 0.00 0.00 85 1053.6
20260906151634 80 273 0.9 1.7 0.00 0.00 0.00 87 1053.8
20260906151130 80 306 1.7 2.6 0.00 0.00 0.00 87 1053.9
20260906150625 79 303 0.0 0.9 0.00 0.00 0.00 88 1053.9
20260906150120 79 76 1.7 2.6 0.00 0.00 0.00 90 1053.8
20260906145619 79 328 0.9 2.6 0.00 0.00 0.00 90 1053.7
20260906145114 78 13 0.9 1.7 0.00 0.00 0.00 89 1053.6
20260906144608 79 32 0.9 1.7 0.00 0.00 0.00 89 1053.7
20260906144103 78 247 0.9 1.7 0.00 0.00 0.00 91 1053.6
20260906143558 78 330 0.9 0.9 0.00 0.00 0.00 91 1053.8
20260906143055 77 313 0.0 1.7 0.00 0.00 0.00 92 1053.8
20260906142554 77 222 0.9 1.7 0.00 0.00 0.00 90 1054.0
20260906142049 78 315 0.9 0.9 0.00 0.00 0.00 90 1054.0
20260906141548 77 268 0.0 0.0 0.00 0.00 0.00 90 1054.0
20260906141044 77 349 0.9 2.6 0.00 0.00 0.00 92 1054.0
20260906140543 77 324 0.9 1.7 0.00 0.00 0.00 90 1054.0
20260906140037 78 357 0.9 2.6 0.00 0.00 0.00 90 1054.1
20260906135534 77 305 0.9 0.9 0.00 0.00 0.00 91 1053.8
20260906135030 78 301 0.0 1.7 0.00 0.00 0.00 89 1053.8
20260906134525 78 300 0.0 0.9 0.00 0.00 0.00 89 1054.0
20260906134020 78 339 0.9 0.9 0.00 0.00 0.00 89 1054.0
20260906133516 77 303 0.9 0.9 0.00 0.00 0.00 92 1053.9
20260906133011 76 292 0.9 1.7 0.00 0.00 0.00 92 1053.7
20260906132507 76 355 0.0 1.7 0.00 0.00 0.00 93 1053.7
20260906132002 76 61 1.7 2.6 0.00 0.00 0.00 92 1053.9
20260906131457 76 331 0.0 1.7 0.00 0.00 0.00 94 1053.7
20260906130953 75 312 0.9 1.7 0.00 0.00 0.00 94 1053.8
20260906130451 75 75 0.9 1.7 0.00 0.00 0.00 96 1053.9
20260906125946 75 334 0.9 2.6 0.00 0.00 0.00 95 1053.8
20260906125444 75 300 0.0 0.0 0.00 0.00 0.00 95 1053.9
20260906124943 74 330 0.0 1.7 0.00 0.00 0.00 95 1053.8
20260906124439 74 310 0.0 0.9 0.00 0.00 0.00 96 1053.7
20260906123939 74 305 0.0 0.9 0.00 0.00 0.00 96 1053.5
20260906123439 73 307 0.0 0.0 0.00 0.00 0.00 97 1053.5
20260906122933 73 281 0.9 0.9 0.00 0.00 0.00 98 1053.3
20260906122428 73 43 0.9 1.7 0.00 0.00 0.00 98 1053.4
20260906121925 73 335 0.9 2.6 0.00 0.00 0.00 98 1053.5
20260906121421 73 304 0.0 0.9 0.00 0.00 0.00 98 1053.3
20260906120917 72 286 0.0 0.9 0.00 0.00 0.00 98 1053.2
20260906120412 72 322 0.0 1.7 0.00 0.00 0.00 98 1053.2
20260906115908 72 303 0.9 0.9 0.00 0.00 0.00 98 1053.0
20260906115404 72 322 0.0 0.0 0.00 0.00 0.00 98 1052.9
20260906114903 73 301 0.0 0.0 0.00 0.00 0.00 97 1053.1
20260906114358 73 310 0.0 0.9 0.00 0.00 0.00 97 1052.9
20260906113854 73 323 0.9 1.7 0.00 0.00 0.00 97 1052.9
20260906113352 73 9 0.9 0.9 0.00 0.00 0.00 97 1052.6
20260906112848 73 311 0.9 1.7 0.00 0.00 0.00 97 1052.6
20260906112343 73 332 0.0 1.7 0.00 0.00 0.00 97 1052.6
20260906111838 73 73 0.9 2.6 0.00 0.00 0.00 97 1052.6
20260906111337 73 97 1.7 4.3 0.00 0.00 0.00 97 1052.5
20260906110827 73 26 0.9 2.6 0.00 0.00 0.00 97 1052.6
20260906110323 73 93 1.7 2.6 0.00 0.00 0.00 97 1052.6
20260906105822 73 348 0.0 1.7 0.00 0.00 0.00 97 1052.4
20260906105318 73 6 0.9 1.7 0.00 0.00 0.00 97 1052.7
20260906104813 73 30 0.9 1.7 0.00 0.00 0.00 97 1052.8
20260906104311 73 49 0.9 1.7 0.00 0.00 0.00 97 1052.7
20260906103809 73 1 1.7 4.3 0.00 0.00 0.00 96 1052.8
20260906103303 73 69 1.7 1.7 0.00 0.00 0.00 97 1052.9
20260906102759 73 50 0.9 1.7 0.00 0.00 0.00 97 1052.8
20260906102258 73 13 1.7 2.6 0.00 0.00 0.00 97 1052.9
20260906101754 73 309 0.0 1.7 0.00 0.00 0.00 97 1052.9
20260906101248 73 65 1.7 2.6 0.00 0.00 0.00 97 1052.9
20260906100744 74 83 1.7 1.7 0.00 0.00 0.00 97 1052.8
20260906100243 74 173 2.6 2.6 0.00 0.00 0.00 96 1052.8
20260906095739 74 209 1.7 2.6 0.00 0.00 0.00 97 1052.7
20260906095234 74 114 3.5 4.3 0.00 0.00 0.00 97 1052.6
20260906094733 74 336 0.9 1.7 0.00 0.00 0.00 97 1052.9
20260906094228 74 326 0.0 0.9 0.00 0.00 0.00 97 1052.7
20260906093724 74 296 0.0 0.9 0.00 0.00 0.00 97 1052.6
20260906093214 74 76 1.7 2.6 0.00 0.00 0.00 97 1052.5
20260906092709 74 328 0.0 0.9 0.00 0.00 0.00 97 1052.4
20260906092208 74 16 1.7 1.7 0.00 0.00 0.00 97 1052.5
20260906091705 74 311 0.0 0.0 0.00 0.00 0.00 97 1052.5
20260906091201 74 311 0.0 0.0 0.00 0.00 0.00 97 1052.3
20260906090657 74 52 1.7 2.6 0.00 0.00 0.00 97 1052.3
20260906090155 74 321 0.0 0.9 0.00 0.00 0.00 97 1052.5
20260906085655 74 346 1.7 2.6 0.00 0.00 0.00 97 1052.3
20260906085149 75 10 0.0 2.6 0.00 0.00 0.00 96 1052.2
20260906084644 75 39 2.6 5.2 0.00 0.00 0.00 96 1052.1
20260906084143 75 144 1.7 4.3 0.00 0.00 0.00 96 1052.0
20260906083638 75 108 2.6 4.3 0.00 0.00 0.00 96 1052.1
20260906083133 75 122 2.6 4.3 0.00 0.00 0.00 97 1052.2
20260906082629 75 47 1.7 2.6 0.00 0.00 0.00 97 1052.1
20260906082124 75 87 2.6 2.6 0.00 0.00 0.00 97 1052.2
20260906081620 75 274 0.9 1.7 0.00 0.00 0.00 98 1052.2
20260906081115 75 92 0.9 1.7 0.00 0.00 0.00 97 1052.3
20260906080611 75 83 1.7 2.6 0.00 0.00 0.00 97 1052.2
20260906080107 75 91 2.6 6.1 0.00 0.00 0.00 97 1052.0
20260906075601 75 79 3.5 6.1 0.00 0.00 0.00 97 1052.0
20260906075055 75 346 0.9 2.6 0.00 0.00 0.00 97 1051.9
20260906074550 75 79 5.2 7.8 0.00 0.00 0.00 97 1051.9
20260906074043 75 90 3.5 5.2 0.00 0.00 0.00 97 1052.1
20260906073538 76 61 3.5 4.3 0.00 0.00 0.00 97 1052.1
20260906073034 76 119 4.3 7.0 0.00 0.00 0.00 97 1052.0
20260906072529 76 88 1.7 2.6 0.00 0.00 0.00 97 1052.0
20260906072026 76 79 2.6 4.3 0.00 0.00 0.00 97 1052.1
20260906071521 76 75 5.2 7.0 0.00 0.00 0.00 97 1052.1
20260906071016 76 58 1.7 5.2 0.00 0.00 0.00 97 1052.2
20260906070513 77 87 2.6 4.3 0.00 0.00 0.00 97 1052.1
20260906070008 77 79 1.7 7.0 0.00 0.00 0.00 97 1052.2
20260906065508 77 77 1.7 5.2 0.00 0.00 0.00 98 1051.9
20260906065003 77 82 1.7 2.6 0.00 0.00 0.00 98 1051.9
20260906064459 77 26 1.7 2.6 0.00 0.00 0.00 98 1052.0
20260906063954 77 103 2.6 4.3 0.00 0.00 0.00 98 1052.1
20260906063450 77 112 1.7 4.3 0.00 0.00 0.00 98 1052.1
20260906062949 77 40 1.7 2.6 0.00 0.00 0.00 98 1052.1
20260906062445 77 33 0.9 4.3 0.00 0.00 0.00 98 1052.2
20260906061940 77 13 1.7 4.3 0.00 0.00 0.00 98 1052.1
20260906061435 77 83 0.9 1.7 0.00 0.00 0.00 98 1052.2
20260906060930 78 99 1.7 1.7 0.00 0.00 0.00 98 1052.1
20260906060427 78 72 1.7 4.3 0.00 0.00 0.00 98 1052.0
20260906055923 78 287 0.9 2.6 0.00 0.00 0.00 98 1052.2
20260906055419 78 77 0.9 2.6 0.00 0.00 0.00 97 1052.0
20260906054914 78 65 2.6 7.0 0.00 0.00 0.00 97 1052.0
20260906054409 78 132 2.6 4.3 0.00 0.00 0.00 97 1052.1
20260906053905 78 7 0.9 5.2 0.00 0.00 0.00 97 1051.9
20260906053401 78 65 4.3 6.1 0.00 0.00 0.00 96 1052.1
20260906052856 79 85 1.7 5.2 0.00 0.00 0.00 96 1052.0
20260906052352 79 112 1.7 4.3 0.00 0.00 0.00 96 1052.0
20260906051849 79 84 4.3 7.0 0.00 0.00 0.00 96 1052.0
20260906051348 79 105 2.6 7.8 0.00 0.00 0.00 96 1052.0
20260906050845 79 100 2.6 4.3 0.00 0.00 0.00 95 1052.1
20260906050339 79 61 1.7 4.3 0.00 0.00 0.00 95 1052.4
20260906045838 79 91 2.6 2.6 0.00 0.00 0.00 95 1052.2
20260906045332 79 93 3.5 5.2 0.00 0.00 0.00 95 1052.2
20260906044829 79 80 3.5 4.3 0.00 0.00 0.00 95 1052.0
20260906044329 80 111 2.6 5.2 0.00 0.00 0.00 94 1052.0
20260906043826 80 64 2.6 5.2 0.00 0.00 0.00 94 1051.9
20260906043321 80 81 1.7 6.1 0.00 0.00 0.00 93 1051.8
20260906042820 80 102 4.3 6.1 0.00 0.00 0.00 94 1051.8
20260906042320 80 54 2.6 4.3 0.00 0.00 0.00 93 1051.7
20260906041815 80 67 1.7 2.6 0.00 0.00 0.00 93 1051.7
20260906041310 80 102 0.9 2.6 0.00 0.00 0.00 93 1051.7
20260906040805 80 106 3.5 4.3 0.00 0.00 0.00 93 1051.6
20260906040301 80 94 2.6 4.3 0.00 0.00 0.00 93 1051.7
20260906035756 80 48 3.5 5.2 0.00 0.00 0.00 92 1051.4
20260906035252 81 106 3.5 5.2 0.00 0.00 0.00 92 1051.7
20260906034752 81 96 2.6 4.3 0.00 0.00 0.00 92 1051.5
20260906034252 81 112 2.6 4.3 0.00 0.00 0.00 92 1051.3
20260906033748 81 113 2.6 4.3 0.00 0.00 0.00 92 1051.5
20260906033247 80 93 1.7 4.3 0.00 0.00 0.00 92 1051.5
20260906032744 81 86 1.7 2.6 0.00 0.00 0.00 92 1051.4
20260906032243 81 57 2.6 2.6 0.00 0.00 0.00 91 1051.6
20260906031738 81 102 2.6 2.6 0.00 0.00 0.00 91 1051.8
20260906031234 81 62 1.7 1.7 0.00 0.00 0.00 91 1051.5
20260906030729 81 81 1.7 1.7 0.00 0.00 0.00 90 1051.7
20260906030224 81 97 1.7 2.6 0.00 0.00 0.00 89 1051.6
20260906025723 82 78 0.9 1.7 0.00 0.00 0.00 89 1051.7
20260906025218 82 59 1.7 1.7 0.00 0.00 0.00 89 1051.4
20260906024717 82 66 0.9 1.7 0.00 0.00 0.00 89 1051.2
20260906024216 82 334 0.0 0.9 0.00 0.00 0.00 89 1051.4
20260906023713 81 95 1.7 1.7 0.00 0.00 0.00 90 1051.2
20260906023212 81 331 0.0 1.7 0.00 0.00 0.00 90 1050.9
20260906022707 81 54 1.7 1.7 0.00 0.00 0.00 90 1051.3
20260906022158 81 313 0.0 0.9 0.00 0.00 0.00 90 1050.9
20260906021654 81 318 0.0 0.9 0.00 0.00 0.00 90 1050.8
20260906021152 81 358 0.9 0.9 0.00 0.00 0.00 89 1050.8
20260906020647 82 310 0.0 0.0 0.00 0.00 0.00 89 1050.6
20260906020142 82 247 0.9 1.7 0.00 0.00 0.00 88 1050.5
20260906015636 82 122 1.7 1.7 0.00 0.00 0.00 87 1050.6
20260906015134 83 81 1.7 2.6 0.00 0.00 0.00 87 1050.5
20260906014629 83 103 2.6 4.3 0.00 0.00 0.00 87 1050.3
20260906014125 83 23 0.9 1.7 0.00 0.00 0.00 87 1050.4
20260906013620 83 91 1.7 2.6 0.00 0.00 0.00 86 1050.1
20260906013116 84 114 3.5 4.3 0.00 0.00 0.00 86 1050.1
20260906012611 84 77 2.6 2.6 0.00 0.00 0.00 85 1050.2
20260906012111 84 94 1.7 4.3 0.00 0.00 0.00 86 1050.0
20260906011607 84 134 2.6 2.6 0.00 0.00 0.00 86 1050.1
20260906011106 84 109 2.6 2.6 0.00 0.00 0.00 86 1050.0
20260906010602 84 86 2.6 2.6 0.00 0.00 0.00 85 1050.3
20260906010058 84 68 2.6 5.2 0.00 0.00 0.00 84 1050.1
20260906005557 85 73 2.6 4.3 0.00 0.00 0.00 84 1050.2
20260906005056 85 97 4.3 4.3 0.00 0.00 0.00 83 1050.0
20260906004556 86 95 2.6 2.6 0.00 0.00 0.00 82 1050.1
20260906004051 86 104 3.5 5.2 0.00 0.00 0.00 82 1050.1
20260906003540 86 95 3.5 5.2 0.00 0.00 0.00 81 1049.9
20260906003037 86 126 3.5 5.2 0.00 0.00 0.00 81 1050.1
20260906002536 86 127 2.6 4.3 0.00 0.00 0.00 81 1049.9
20260906002031 87 61 4.3 5.2 0.00 0.00 0.00 80 1050.1
20260906001526 87 104 3.5 5.2 0.00 0.00 0.00 79 1049.9
20260906001021 87 98 3.5 4.3 0.00 0.00 0.00 79 1049.9
20260906000517 88 90 2.6 8.7 0.00 0.00 0.00 78 1050.2
20260906000012 88 108 3.5 7.0 0.00 0.00 0.00 77 1049.9
20260905235506 88 107 2.6 4.3 0.00 0.00 0.00 78 1050.0
20260905235001 88 120 4.3 7.8 0.00 0.00 0.00 77 1049.9
20260905234456 88 89 3.5 6.1 0.00 0.00 0.00 78 1049.9
20260905233955 88 100 3.5 7.0 0.00 0.00 0.00 78 1049.9
20260905233452 88 117 6.1 7.8 0.00 0.00 0.00 77 1049.8
20260905232950 89 101 3.5 5.2 0.00 0.00 0.00 77 1049.8
20260905232447 89 139 3.5 8.7 0.00 0.00 0.00 77 1049.9
20260905231942 89 46 7.0 7.8 0.00 0.00 0.00 76 1049.9
20260905231437 89 84 1.7 7.0 0.00 0.00 0.00 76 1049.7
20260905230928 89 67 3.5 7.8 0.00 0.00 0.00 75 1049.8
20260905230426 89 100 3.5 7.0 0.00 0.00 0.00 76 1049.8
20260905225925 89 107 5.2 9.6 0.00 0.00 0.00 76 1049.8
20260905225420 89 104 6.1 7.8 0.00 0.00 0.00 76 1049.5
20260905224915 90 110 7.0 8.7 0.00 0.00 0.00 74 1049.8
20260905224411 90 105 6.1 7.8 0.00 0.00 0.00 74 1049.7
20260905223905 90 128 4.3 8.7 0.00 0.00 0.00 75 1049.6
20260905223403 90 83 4.3 7.0 0.00 0.00 0.00 74 1049.9
20260905222857 90 91 6.1 7.0 0.00 0.00 0.00 74 1049.6
20260905222356 89 67 5.2 7.0 0.00 0.00 0.00 74 1049.7
20260905221852 89 78 3.5 8.7 0.00 0.00 0.00 75 1049.6
20260905221349 90 110 7.0 8.7 0.00 0.00 0.00 74 1049.4
20260905220844 90 93 4.3 8.7 0.00 0.00 0.00 75 1049.7
20260905220341 90 95 7.0 8.7 0.00 0.00 0.00 74 1049.9
20260905215834 90 87 5.2 7.8 0.00 0.00 0.00 74 1049.8
20260905215330 91 99 6.1 7.0 0.00 0.00 0.00 72 1049.8
20260905214827 91 63 3.5 7.0 0.00 0.00 0.00 73 1049.7
20260905214321 91 95 6.1 7.0 0.00 0.00 0.00 72 1049.7
20260905213816 90 69 4.3 7.0 0.00 0.00 0.00 73 1049.9
20260905213312 90 104 2.6 7.0 0.00 0.00 0.00 75 1050.0
20260905212807 90 124 3.5 6.1 0.00 0.00 0.00 74 1050.1
20260905212306 90 134 4.3 6.1 0.00 0.00 0.00 74 1049.9
20260905211802 90 113 4.3 5.2 0.00 0.00 0.00 72 1050.0
20260905211256 90 100 6.1 7.8 0.00 0.00 0.00 72 1050.1
20260905210753 91 120 5.2 7.0 0.00 0.00 0.00 71 1050.2
20260905210253 90 79 4.3 7.0 0.00 0.00 0.00 72 1050.3
20260905205751 91 92 4.3 7.8 0.00 0.00 0.00 72 1050.1
20260905205246 90 120 4.3 6.1 0.00 0.00 0.00 73 1049.7
20260905204746 90 98 6.1 9.6 0.00 0.00 0.00 73 1049.7
20260905204242 90 65 7.8 9.6 0.00 0.00 0.00 73 1049.6
20260905203741 90 103 6.1 7.8 0.00 0.00 0.00 74 1049.6
20260905203237 91 126 4.3 12.2 0.00 0.00 0.00 74 1049.7
20260905202732 91 103 5.2 7.0 0.00 0.00 0.00 74 1049.8
20260905202227 90 122 4.3 8.7 0.00 0.00 0.00 75 1049.8
20260905201722 90 104 5.2 8.7 0.00 0.00 0.00 77 1049.9
20260905201217 91 91 7.8 7.8 0.00 0.00 0.00 73 1050.0
20260905200712 90 93 4.3 7.0 0.00 0.00 0.00 77 1050.1
20260905200208 89 95 4.3 7.0 0.00 0.00 0.00 76 1050.2
20260905195706 90 73 4.3 8.7 0.00 0.00 0.00 76 1050.5
20260905195201 90 95 5.2 6.1 0.00 0.00 0.00 76 1050.4
20260905194656 91 24 2.6 5.2 0.00 0.00 0.00 76 1050.3
20260905194155 90 230 2.6 5.2 0.00 0.00 0.00 77 1050.4
20260905193650 90 105 4.3 6.1 0.00 0.00 0.00 78 1050.4
20260905193145 90 89 5.2 7.0 0.00 0.00 0.00 77 1050.8
20260905192640 89 87 4.3 7.8 0.00 0.00 0.00 78 1050.7
20260905192137 89 106 2.6 6.1 0.00 0.00 0.00 78 1050.8
20260905191637 90 95 6.1 7.0 0.00 0.00 0.00 77 1050.9
20260905191134 89 114 5.2 6.1 0.00 0.00 0.00 75 1051.2
20260905190632 89 122 6.1 7.8 0.00 0.00 0.00 75 1051.3
20260905190127 89 7 1.7 7.0 0.00 0.00 0.00 78 1051.7
20260905185625 89 104 3.5 6.1 0.00 0.00 0.00 78 1051.7
20260905185120 89 336 1.7 4.3 0.00 0.00 0.00 77 1051.6
20260905184615 89 94 4.3 6.1 0.00 0.00 0.00 78 1051.8
20260905184114 89 99 2.6 5.2 0.00 0.00 0.00 78 1051.9
20260905183613 89 109 4.3 7.0 0.00 0.00 0.00 79 1051.9
20260905183108 88 86 1.7 5.2 0.00 0.00 0.00 80 1051.8
20260905182607 87 94 3.5 5.2 0.00 0.00 0.00 79 1051.9
20260905182102 88 25 0.9 6.1 0.00 0.00 0.00 81 1051.9
20260905181602 87 85 3.5 6.1 0.00 0.00 0.00 80 1051.9
20260905181101 88 100 1.7 4.3 0.00 0.00 0.00 81 1052.2
20260905180556 87 193 0.9 2.6 0.00 0.00 0.00 81 1051.9
20260905180051 87 101 4.3 6.1 0.00 0.00 0.00 81 1051.9
20260905175550 87 13 3.5 7.0 0.00 0.00 0.00 80 1052.1
20260905175046 88 62 2.6 4.3 0.00 0.00 0.00 80 1052.0
20260905174542 87 274 0.9 2.6 0.00 0.00 0.00 82 1051.9
20260905174037 88 26 0.9 6.1 0.00 0.00 0.00 80 1052.0
20260905173534 89 43 2.6 7.0 0.00 0.00 0.00 79 1052.0
20260905173029 89 10 3.5 5.2 0.00 0.00 0.00 78 1052.0